Powrót do katalogu

ORB-12 STRIDER

LostNaukaVLEO
NORAD 57483·PAYLOAD·🇬🇧 United Kingdom

Wystrzelony Jul 30, 2023 z Satish Dhawan Space Centre

Loading…

Następne Przeloty (najbliższe 24 godziny)

TLE

NieaktualneSource: Space-Track

Epoka: Jan 10, 2024, 19:03 UTC

1 57483U 23109C   24010.79410534  .00010603  00000-0  49907-3 0  9994
2 57483   5.0027 110.8465 0013742 325.2209  34.7002 15.15065068 25008

Śledź ORB-12 STRIDER w czasie rzeczywistym z AllMySat

Download on the App Store